�N����,����,�~����,�C��,���x,�C��,����,���ϕ���,�ő�u�ԕ���,�ő厞����,���˗�,�I�_���x,�n�����x,�ő啗���N��,DTYPE
"23/08/20","00:10",0.0,27.8,86.1,1005.2,341.3,1.2,2.4,343.2,0.00,25.3,27.7,"00:02:56",1
"23/08/20","00:20",0.0,27.6,86.4,1005.7,314.5,1.2,2.1,330.7,0.00,25.2,27.6,"00:17:44",1
"23/08/20","00:30",0.0,27.7,86.3,1005.5,311.5,1.5,2.4,340.7,0.00,25.2,27.8,"00:27:28",1
"23/08/20","00:40",0.0,27.7,86.1,1005.7,320.2,1.2,2.0,334.5,0.00,25.2,27.5,"00:36:40",1
"23/08/20","00:50",0.0,27.6,86.2,1005.7,334.8,1.0,1.9,354.0,0.00,25.1,27.6,"00:44:24",1
"23/08/20","01:00",0.0,27.5,86.5,1005.7,335.3,1.1,1.8,335.7,0.00,25.1,27.6,"00:55:52",1
"23/08/20","01:10",0.0,27.4,86.9,1005.5,328.4,1.1,2.4,336.6,0.00,25.1,27.5,"01:09:28",1
"23/08/20","01:20",0.0,27.3,87.1,1005.5,323.2,1.0,2.0,335.2,0.00,25.0,27.7,"01:10:08",1
"23/08/20","01:30",0.0,27.2,87.5,1005.7,322.3,1.0,1.6,345.6,0.00,25.0,27.5,"01:22:08",1
"23/08/20","01:40",0.0,27.1,87.9,1005.5,310.9,0.8,1.4,333.2,0.00,25.0,27.5,"01:31:52",1
"23/08/20","01:50",0.0,26.9,88.2,1005.7,290.5,0.7,1.2,314.5,0.00,24.8,27.3,"01:42:24",1
"23/08/20","02:00",0.0,26.8,88.5,1005.5,274.7,0.7,1.3,310.1,0.00,24.8,27.2,"01:58:08",1
"23/08/20","02:10",0.0,26.8,88.7,1005.5,309.1,0.8,1.2,333.2,0.00,24.8,27.4,"02:05:04",1
"23/08/20","02:20",0.0,26.8,88.9,1005.7,304.0,1.0,1.6,304.5,0.00,24.9,27.5,"02:14:56",1
"23/08/20","02:30",0.0,26.7,89.1,1005.7,290.6,0.8,1.6,328.7,0.00,24.8,27.3,"02:29:44",1
"23/08/20","02:40",0.0,26.7,89.2,1005.5,297.6,1.0,1.6,329.7,0.00,24.8,27.3,"02:35:36",1
"23/08/20","02:50",0.0,26.7,89.4,1005.5,281.9,0.8,1.2,320.0,0.00,24.8,27.4,"02:45:04",1
"23/08/20","03:00",0.0,26.6,89.5,1005.5,303.4,1.0,1.4,352.2,0.00,24.8,27.4,"02:55:36",1
"23/08/20","03:10",0.0,26.6,89.6,1005.7,309.7,1.1,2.0,329.7,0.00,24.8,27.2,"03:05:52",1
"23/08/20","03:20",0.0,26.6,89.7,1005.5,299.5,0.7,1.6,330.0,0.00,24.8,27.3,"03:14:40",1
"23/08/20","03:30",0.0,26.6,89.9,1005.5,322.1,1.2,2.2,325.3,0.00,24.8,27.2,"03:27:52",1
"23/08/20","03:40",0.0,26.5,89.9,1005.5,300.6,0.7,1.6,320.2,0.00,24.7,27.2,"03:33:52",1
"23/08/20","03:50",0.0,26.4,90.0,1005.7,325.4,1.0,1.4,308.4,0.00,24.7,27.1,"03:45:44",1
"23/08/20","04:00",0.0,26.3,90.3,1005.7,324.2,0.7,1.9,334.6,0.00,24.6,27.2,"03:55:04",1
"23/08/20","04:10",0.0,26.1,90.4,1005.5,307.9,0.6,1.1,319.7,0.00,24.4,27.1,"04:00:32",1
"23/08/20","04:20",0.0,26.2,90.7,1006.0,326.5,1.0,2.1,315.8,0.00,24.6,27.2,"04:18:40",1
"23/08/20","04:30",0.0,26.2,90.8,1006.0,328.1,1.2,1.9,324.4,0.00,24.6,27.0,"04:24:40",1
"23/08/20","04:40",0.0,26.1,90.9,1006.2,306.6,0.7,1.2,340.1,0.00,24.5,27.1,"04:30:08",1
"23/08/20","04:50",0.0,26.0,91.1,1006.2,290.5,0.8,1.7,315.9,0.00,24.5,27.1,"04:49:44",1
"23/08/20","05:00",0.0,26.0,91.1,1006.2,312.8,1.1,1.6,301.9,0.00,24.5,26.9,"04:51:12",1
"23/08/20","05:10",0.0,26.0,91.2,1006.0,301.3,0.7,1.3,317.6,0.00,24.5,26.8,"05:09:52",1
"23/08/20","05:20",0.0,25.9,91.3,1006.0,326.2,0.8,1.1,331.5,0.00,24.4,26.8,"05:10:08",1
"23/08/20","05:30",0.0,25.9,91.5,1006.0,317.7,1.1,1.8,326.7,0.00,24.4,27.0,"05:28:32",1
"23/08/20","05:40",0.0,25.8,91.7,1006.2,304.9,0.7,1.3,338.5,0.00,24.4,27.0,"05:32:32",1
"23/08/20","05:50",0.0,25.9,91.8,1006.4,318.7,1.1,1.9,327.8,0.00,24.5,26.8,"05:44:08",1
"23/08/20","06:00",0.0,26.1,91.9,1006.2,305.0,1.1,1.6,320.6,0.00,24.7,26.8,"05:52:00",1
"23/08/20","06:10",0.0,26.3,91.9,1006.7,294.4,0.7,1.2,299.2,0.01,24.9,26.7,"06:01:44",1
"23/08/20","06:20",0.0,26.9,91.9,1006.2,292.3,0.3,0.6,299.1,0.02,25.5,26.7,"06:10:24",1
"23/08/20","06:30",0.0,27.0,91.5,1006.4,313.3,0.5,1.7,336.8,0.03,25.5,26.7,"06:29:12",1
"23/08/20","06:40",0.0,27.5,91.2,1006.4,337.7,0.3,1.2,317.6,0.04,26.0,27.1,"06:31:44",1
"23/08/20","06:50",0.0,28.3,90.1,1006.4,19.1,0.3,0.9,20.7,0.06,26.6,26.7,"06:49:12",1
"23/08/20","07:00",0.0,28.9,89.0,1006.0,7.0,0.3,0.9,343.8,0.08,26.9,26.8,"06:57:52",1
"23/08/20","07:10",0.0,29.5,86.9,1006.0,36.2,0.3,0.8,358.1,0.10,27.1,26.7,"07:00:32",1
"23/08/20","07:20",0.0,30.4,83.9,1006.4,79.0,0.2,0.8,44.0,0.12,27.4,26.8,"07:12:56",1
"23/08/20","07:30",0.0,30.8,79.0,1006.7,154.2,0.6,1.9,200.7,0.14,26.8,26.9,"07:24:48",1
"23/08/20","07:40",0.0,30.9,75.6,1007.1,228.5,0.6,1.3,182.0,0.16,26.1,26.5,"07:30:48",1
"23/08/20","07:50",0.0,31.4,74.0,1007.8,151.6,0.3,1.0,357.7,0.18,26.2,26.8,"07:41:28",1
"23/08/20","08:00",0.0,31.9,70.4,1008.1,8.7,0.6,1.9,14.1,0.21,25.9,26.7,"07:51:28",1
"23/08/20","08:10",0.0,32.3,70.0,1008.3,131.6,0.7,1.6,119.8,0.23,26.2,26.7,"08:08:40",1
"23/08/20","08:20",0.0,32.3,67.6,1008.6,129.7,0.6,1.3,123.8,0.25,25.6,26.8,"08:11:52",1
"23/08/20","08:30",0.0,33.1,65.7,1008.6,95.0,0.6,2.0,6.1,0.27,25.9,26.8,"08:28:32",1
"23/08/20","08:40",0.0,33.6,64.3,1009.0,51.4,0.6,1.8,14.7,0.29,26.0,27.0,"08:36:08",1
"23/08/20","08:50",0.0,33.4,63.7,1009.0,331.8,0.6,1.7,354.9,0.31,25.6,26.9,"08:41:12",1
"23/08/20","09:00",0.0,33.5,63.9,1009.0,58.5,0.6,1.6,343.2,0.33,25.8,26.8,"08:51:28",1
"23/08/20","09:10",0.0,33.9,63.8,1009.3,182.6,0.6,2.0,189.0,0.35,26.1,27.1,"09:03:04",1
"23/08/20","09:20",0.0,33.9,62.9,1009.3,150.0,0.8,1.9,142.7,0.37,25.9,27.2,"09:12:08",1
"23/08/20","09:30",0.0,34.3,62.2,1009.5,348.8,0.6,1.6,58.3,0.39,26.1,27.2,"09:27:52",1
"23/08/20","09:40",0.0,34.8,62.2,1009.5,99.5,0.6,1.8,124.0,0.40,26.5,27.1,"09:38:48",1
"23/08/20","09:50",0.0,34.6,62.8,1009.3,165.7,1.1,2.0,188.7,0.42,26.5,27.2,"09:42:08",1
"23/08/20","10:00",0.0,34.8,62.3,1009.3,160.0,1.0,2.4,205.0,0.43,26.6,27.2,"09:54:48",1
"23/08/20","10:10",0.0,35.2,59.9,1009.3,104.6,0.7,1.8,111.5,0.45,26.3,27.2,"10:02:48",1
"23/08/20","10:20",0.0,35.6,59.2,1009.0,122.8,0.8,2.1,117.5,0.46,26.4,27.3,"10:16:40",1
"23/08/20","10:30",0.0,35.7,61.7,1008.8,219.3,0.8,2.6,226.9,0.47,27.2,27.3,"10:21:28",1
"23/08/20","10:40",0.0,35.8,59.6,1008.8,159.3,0.8,1.8,147.4,0.48,26.7,27.4,"10:37:04",1
"23/08/20","10:50",0.0,35.5,58.0,1008.8,178.5,1.3,3.1,229.9,0.49,26.0,27.3,"10:44:40",1
"23/08/20","11:00",0.0,35.8,57.4,1008.6,198.5,1.3,3.6,229.2,0.50,26.1,27.5,"10:55:44",1
"23/08/20","11:10",0.0,35.9,57.0,1008.3,208.3,1.1,2.7,200.2,0.50,26.1,27.6,"11:09:12",1
"23/08/20","11:20",0.0,36.1,58.4,1008.1,187.4,1.6,4.8,232.9,0.50,26.7,27.7,"11:11:36",1
"23/08/20","11:30",0.0,36.8,58.6,1008.3,195.0,1.2,3.9,234.7,0.54,27.4,27.7,"11:26:00",1
"23/08/20","11:40",0.0,36.9,56.4,1008.1,181.3,1.0,2.7,216.5,0.56,26.8,27.8,"11:38:24",1
"23/08/20","11:50",0.0,36.3,55.0,1007.8,237.9,1.7,4.1,227.0,0.54,25.8,28.0,"11:43:36",1
"23/08/20","12:00",0.0,36.6,55.4,1008.3,210.8,1.2,3.4,227.6,0.58,26.2,28.0,"11:54:16",1
"23/08/20","12:10",0.0,36.9,54.5,1008.1,267.3,1.2,3.2,350.0,0.59,26.2,28.1,"12:05:52",1
"23/08/20","12:20",0.0,37.1,53.1,1007.6,352.4,1.1,2.7,342.9,0.52,26.0,28.2,"12:17:44",1
"23/08/20","12:30",0.0,36.7,51.6,1007.6,265.4,1.1,2.6,225.2,0.43,25.1,28.3,"12:27:52",1
"23/08/20","12:40",0.0,37.4,50.6,1007.4,311.0,0.3,2.6,346.2,0.49,25.5,28.4,"12:30:02",1
"23/08/20","12:50",0.0,36.9,52.3,1007.1,9.2,1.2,2.7,36.8,0.28,25.6,28.3,"12:42:56",1
"23/08/20","13:00",0.0,36.6,55.9,1006.7,343.2,1.2,2.8,345.8,0.42,26.4,28.7,"12:55:52",1
"23/08/20","13:10",0.0,36.5,54.2,1006.2,40.7,1.1,2.5,2.8,0.27,25.8,28.5,"13:02:56",1
"23/08/20","13:20",0.0,36.9,53.7,1006.2,103.4,0.7,2.6,125.9,0.32,26.0,28.7,"13:19:28",1
"23/08/20","13:30",0.0,35.5,59.3,1006.0,106.1,1.0,2.6,78.8,0.10,26.4,28.6,"13:24:24",1
"23/08/20","13:40",0.0,36.2,58.6,1006.0,94.3,1.0,2.4,110.7,0.40,26.8,28.7,"13:38:24",1
"23/08/20","13:50",0.0,36.3,58.5,1005.7,102.6,0.8,2.4,109.4,0.32,26.9,28.9,"13:40:08",1
"23/08/20","14:00",0.0,37.5,55.5,1006.2,120.3,1.0,2.7,145.7,0.46,27.1,28.8,"13:58:56",1
"23/08/20","14:10",0.0,37.1,54.2,1006.4,174.9,1.1,2.2,126.1,0.36,26.3,28.8,"14:01:28",1
"23/08/20","14:20",0.0,36.8,54.0,1006.2,175.0,1.0,2.5,218.4,0.28,26.0,29.0,"14:14:16",1
"23/08/20","14:30",0.0,37.2,51.9,1006.0,319.1,0.6,1.7,356.3,0.22,25.7,28.9,"14:28:32",1
"23/08/20","14:40",0.0,35.6,57.1,1005.5,341.9,1.7,3.9,319.3,0.22,25.8,29.0,"14:38:00",1
"23/08/20","14:50",0.0,32.8,64.0,1005.0,341.6,2.6,5.4,348.2,0.05,25.1,29.0,"14:42:16",1
"23/08/20","15:00",0.0,32.1,66.6,1004.1,326.3,1.6,4.1,339.0,0.05,25.1,29.0,"14:55:28",1
"23/08/20","15:10",0.0,32.0,67.6,1003.6,319.5,1.3,2.7,347.9,0.06,25.3,29.1,"15:08:08",1
"23/08/20","15:20",0.0,31.7,68.9,1003.1,329.5,1.7,3.9,340.5,0.05,25.3,29.0,"15:13:44",1
"23/08/20","15:30",0.0,31.6,70.3,1003.1,305.7,1.0,2.7,354.6,0.04,25.6,29.0,"15:23:44",1
"23/08/20","15:40",0.0,31.9,70.6,1002.9,311.5,0.8,2.7,345.6,0.06,25.9,29.0,"15:35:44",1
"23/08/20","15:50",0.0,33.0,69.6,1002.9,268.7,0.8,2.2,243.8,0.22,26.7,29.0,"15:48:40",1
"23/08/20","16:00",0.0,34.2,67.6,1003.4,280.3,0.8,2.4,324.4,0.22,27.4,29.0,"15:54:24",1
"23/08/20","16:10",0.0,34.2,65.9,1003.4,302.9,1.0,2.1,327.7,0.19,26.9,29.0,"16:03:20",1
"23/08/20","16:20",0.0,34.5,65.4,1003.6,310.7,0.8,1.9,330.3,0.18,27.1,28.8,"16:13:04",1
"23/08/20","16:30",0.0,34.8,65.7,1004.1,297.9,0.8,1.8,334.2,0.15,27.5,28.9,"16:20:02",1
"23/08/20","16:40",0.0,34.5,65.0,1003.8,286.0,1.0,2.2,215.7,0.10,27.0,29.0,"16:38:00",1
"23/08/20","16:50",0.0,33.2,68.0,1003.8,253.9,1.2,2.5,241.3,0.01,26.5,28.8,"16:40:56",1
"23/08/20","17:00",0.0,32.4,70.0,1003.4,278.4,0.8,1.7,255.8,0.01,26.3,29.1,"16:55:04",1
"23/08/20","17:10",0.0,32.1,71.4,1003.4,269.0,0.8,1.9,252.3,0.00,26.3,28.8,"17:07:28",1
"23/08/20","17:20",0.0,31.6,72.9,1002.6,282.1,0.8,2.2,244.5,0.00,26.2,28.8,"17:12:24",1
"23/08/20","17:30",0.0,31.2,73.9,1002.4,263.1,0.8,2.0,228.0,0.00,26.0,29.0,"17:24:16",1
"23/08/20","17:40",0.0,31.1,74.0,1002.6,305.8,1.3,3.3,349.6,0.00,26.0,29.0,"17:36:24",1
"23/08/20","17:50",0.0,31.0,74.3,1002.9,336.9,1.5,3.1,338.9,0.01,25.9,28.9,"17:47:20",1
"23/08/20","18:00",0.0,31.5,75.1,1002.4,344.0,1.1,2.4,327.4,0.01,26.6,28.6,"17:50:40",1
"23/08/20","18:10",0.0,31.4,75.2,1002.9,315.0,1.1,2.2,304.3,0.00,26.5,28.8,"18:09:12",1
"23/08/20","18:20",0.0,31.3,75.4,1002.6,340.7,1.0,2.0,352.9,0.00,26.5,28.8,"18:14:32",1
"23/08/20","18:30",0.0,30.8,75.8,1002.6,287.1,0.7,2.1,242.7,0.00,26.1,28.8,"18:26:40",1
"23/08/20","18:40",0.0,30.8,75.5,1002.9,299.2,1.1,3.1,327.5,0.00,26.0,28.6,"18:36:00",1
"23/08/20","18:50",0.0,30.5,75.0,1002.9,335.3,1.2,2.2,337.5,0.00,25.6,28.8,"18:45:12",1
"23/08/20","19:00",0.0,30.4,75.2,1002.9,342.4,1.0,2.2,356.5,0.00,25.6,28.6,"18:50:08",1
"23/08/20","19:10",0.0,30.3,75.6,1002.9,344.1,1.2,2.6,342.2,0.00,25.5,28.7,"19:05:36",1
"23/08/20","19:20",0.0,30.0,77.2,1003.1,347.0,1.3,2.1,337.5,0.00,25.6,28.4,"19:15:44",1
"23/08/20","19:30",0.0,29.7,77.7,1002.4,345.7,1.5,2.6,348.8,0.00,25.4,28.4,"19:21:52",1
"23/08/20","19:40",0.0,29.8,77.9,1002.9,348.8,1.2,2.5,343.0,0.00,25.6,28.3,"19:34:32",1
"23/08/20","19:50",0.0,29.6,78.2,1003.4,290.4,0.7,1.9,249.5,0.00,25.4,28.5,"19:47:20",1
"23/08/20","20:00",0.0,29.6,78.1,1004.1,281.8,0.8,1.6,298.2,0.00,25.4,28.4,"19:50:40",1
"23/08/20","20:10",0.0,29.6,78.0,1004.1,261.2,0.6,1.3,240.4,0.00,25.4,28.3,"20:02:32",1
"23/08/20","20:20",0.0,29.4,78.0,1004.3,304.3,0.8,1.3,240.9,0.00,25.2,28.3,"20:11:20",1
"23/08/20","20:30",0.0,29.4,77.8,1004.5,317.2,1.2,2.1,329.3,0.00,25.2,28.3,"20:28:24",1
"23/08/20","20:40",0.0,29.6,78.1,1004.3,337.8,1.6,3.1,335.1,0.00,25.4,28.1,"20:34:32",1
"23/08/20","20:50",0.0,29.3,78.8,1004.3,337.0,1.5,2.5,335.0,0.00,25.3,28.2,"20:43:52",1
"23/08/20","21:00",0.0,29.2,79.2,1004.3,347.7,1.2,2.7,350.3,0.00,25.3,28.2,"20:51:12",1
"23/08/20","21:10",0.0,29.0,79.9,1004.5,344.6,1.2,2.0,349.6,0.00,25.2,28.1,"21:04:56",1
"23/08/20","21:20",0.0,28.8,80.5,1004.5,338.0,1.3,3.1,351.2,0.00,25.1,28.2,"21:17:28",1
"23/08/20","21:30",0.0,28.8,80.4,1004.8,329.8,1.6,2.9,351.6,0.00,25.1,28.1,"21:23:04",1
"23/08/20","21:40",0.0,28.8,80.1,1004.8,306.6,1.3,2.2,322.7,0.00,25.1,28.2,"21:30:56",1
"23/08/20","21:50",0.0,28.8,80.1,1004.8,318.5,1.5,2.6,328.8,0.00,25.1,28.1,"21:45:52",1
"23/08/20","22:00",0.0,28.7,80.1,1005.0,328.8,1.5,3.1,334.7,0.00,25.0,28.0,"21:50:02",1
"23/08/20","22:10",0.0,28.6,80.4,1005.0,315.0,1.5,2.6,311.0,0.00,24.9,27.9,"22:09:36",1
"23/08/20","22:20",0.0,28.5,80.8,1004.8,339.5,1.6,3.4,329.0,0.00,24.9,27.9,"22:12:56",1
"23/08/20","22:30",0.0,28.3,81.4,1005.0,332.7,1.5,3.2,326.3,0.00,24.8,27.9,"22:24:24",1
"23/08/20","22:40",0.0,28.4,81.5,1005.0,321.3,1.5,3.1,316.9,0.00,25.0,27.9,"22:33:28",1
"23/08/20","22:50",0.0,28.3,81.6,1005.2,315.2,1.2,2.7,330.3,0.00,24.9,27.8,"22:49:36",1
"23/08/20","23:00",0.0,28.2,81.8,1005.2,313.7,1.5,3.2,342.8,0.00,24.8,27.9,"22:53:28",1
"23/08/20","23:10",0.0,28.2,82.3,1005.2,319.7,1.5,2.6,341.5,0.00,24.9,27.8,"23:00:16",1
"23/08/20","23:20",0.0,28.1,82.7,1004.8,323.0,1.5,2.8,347.3,0.00,24.9,27.7,"23:18:56",1
"23/08/20","23:30",0.0,28.0,83.1,1005.0,333.7,1.7,3.6,344.6,0.00,24.9,27.9,"23:24:48",1
"23/08/20","23:40",0.0,27.9,83.4,1005.0,336.3,1.6,2.7,324.3,0.00,24.9,27.8,"23:30:08",1
"23/08/20","23:50",0.0,27.8,83.8,1005.0,337.5,1.3,2.2,349.8,0.00,24.8,27.6,"23:44:24",1
"23/08/20","24:00",0.0,27.8,84.2,1005.0,331.2,1.7,3.9,334.1,0.00,24.9,27.5,"23:54:08",1
